sat.trackr.live / text

‹ back to catalog

STARLINK-35289

NORAD 65809 · 2025-218U

PAYLOAD ACTIVE UNKNOWN

§ Identity

Operator
Country
US
Launch date
2025-09-26
Launch site
AFWTR
Launch vehicle
Mass (kg)
RCS (m²)

Purposes: comms

External: N2YO · Heavens-Above · Gunter

§ Orbital elements

Epoch: 2026-05-25T03:11:13.034400Z

Period
95.64 min
Inclination
97.4492°
Eccentricity
0.0002903
Mean motion
15.05655074 rev/d
Perigee alt
547.5 km
Apogee alt
551.5 km
Semi-major
6,927.6 km
B*
1.4013e-4
RAAN
7.9461°
Arg perigee
85.9725°
Mean anomaly
274.1834°
Rev number
3,647

§ Raw data

STARLINK-352891 65809U 25218U   26145.13278975  .00001964  00000+0  14013-3 0  99972 65809  97.4492   7.9461 0002903  85.9725 274.1834 15.05655074 36479

JSON: /api/v1/satellites/65809 · /tle

For live sub-satellite position, see the globe view (requires WebGL).

§ Visibility from observer

Set your observer location to see the next 7 days of passes ≥ 10°. The values pass through the URL so the page stays shareable.

No JS? Fill the form by hand. The geolocation button needs JavaScript.